Weather History for Huron, SD

Change the Weather History Date:

Tuesday, October 9, 2012

  Actual Average Record
Temperature  
Mean Temperature 39 °F 51 °F  
Max Temperature 51 °F 64 °F 90 °F (1980)
Min Temperature 26 °F 38 °F 16 °F (1964)
Degree Days  
Heating Degree Days 26 14  
Month to date heating degree days 165 113  
Since 1 July heating degree days 339 309  
Cooling Degree Days 0 0  
Month to date cooling degree days 0 0  
Year to date cooling degree days 1083 738  
Moisture  
Dew Point 28 °F    
Average Humidity 54    
Maximum Humidity 69    
Minimum Humidity 38    
Precipitation  
Precipitation 0.00 in 0.06 in 1.25 in (1973)
Month to date precipitation T 0.59  
Year to date precipitation 17.27 20.31  
Snow  
Snow 0.00 in 0.00 in 0.80 in (2009)
Month to date snowfall 0.0 0.1  
Since 1 July snowfall 0.0 0.1  
Since 1 September snowfall 0.0 0.1  
Snow Depth 0.00 in    
Sea Level Pressure  
Sea Level Pressure 29.97 in    
Wind  
Wind Speed 16 mph (NW)    
Max Wind Speed 31 mph    
Max Gust Speed 40 mph    
Visibility 10 miles    
Events      
T = Trace of Precipitation, MM = Missing Value Source: NWS Daily Summary

Daily Weather History Graph

Daily Weather History Graph

Search for Another Location

Airport:

Trip Planner

Search our weather history database for the weather conditions in past years. The results will help you decide how hot, cold, wet, or windy it might be!

Date:

Astronomy

Oct. 09, 2012 Rise Set
Actual Time 7:41 AM CDT 6:58 PM CDT
Civil Twilight 7:11 AM CDT 7:27 PM CDT
Nautical Twilight 6:38 AM CDT 8:00 PM CDT
Astronomical Twilight 6:04 AM CDT 8:34 PM CDT
Moon 1:05 AM CDT (10/9) 3:38 PM CDT (10/9)
Length of Visible Light 12h 15m
Length of Day
11h 17m
Last Quarter, 36% of the Moon is Illuminated
Oct 9
Last Quarter
Oct 15
New
Oct 21
First Quarter
Oct 29
Full
Nov 6
Last Quarter

Hourly Weather History & Observations

Time (CDT) Temp. Windchill Dew Point Humidity Pressure Visibility Wind Dir Wind Speed Gust Speed Precip Events Conditions
12:55 AM 51.1 °F - 37.0 °F 59% 29.79 in 10.0 mi WSW 5.8 mph - N/A   Overcast
1:55 AM 51.1 °F - 37.0 °F 59% 29.78 in 10.0 mi West 8.1 mph - N/A   Overcast
2:55 AM 51.1 °F - 37.0 °F 59% 29.80 in 10.0 mi NW 12.7 mph - N/A   Overcast
3:55 AM 50.0 °F - 36.0 °F 59% 29.82 in 10.0 mi NW 9.2 mph - N/A   Overcast
4:55 AM 46.9 °F - 30.9 °F 54% 29.85 in 10.0 mi NNW 13.8 mph - N/A   Scattered Clouds
5:55 AM 46.0 °F 41.4 °F 32.0 °F 58% 29.88 in 10.0 mi WNW 9.2 mph - N/A   Overcast
6:55 AM 45.0 °F 38.2 °F 30.0 °F 56% 29.90 in 10.0 mi WNW 15.0 mph - N/A   Mostly Cloudy
7:55 AM 42.1 °F 34.5 °F 23.0 °F 47% 29.93 in 10.0 mi NW 15.0 mph - N/A   Clear
8:55 AM 43.0 °F 35.7 °F 24.1 °F 47% 29.94 in 10.0 mi WNW 15.0 mph 21.9 mph N/A   Clear
9:55 AM 46.0 °F 38.3 °F 25.0 °F 44% 29.96 in 10.0 mi NW 20.7 mph 33.4 mph N/A   Partly Cloudy
10:55 AM 45.0 °F 35.2 °F 25.0 °F 46% 29.97 in 10.0 mi NW 29.9 mph 36.8 mph N/A   Mostly Cloudy
11:55 AM 46.0 °F 37.0 °F 27.0 °F 47% 29.98 in 10.0 mi NNW 27.6 mph 36.8 mph N/A   Overcast
12:55 PM 48.0 °F - 27.0 °F 44% 29.99 in 10.0 mi NNW 28.8 mph 36.8 mph N/A   Overcast
1:55 PM 48.0 °F - 27.0 °F 44% 30.00 in 10.0 mi NNW 24.2 mph 32.2 mph N/A   Overcast
2:55 PM 48.0 °F - 26.1 °F 42% 30.00 in 10.0 mi NNW 23.0 mph 34.5 mph N/A   Overcast
3:55 PM 48.9 °F - 25.0 °F 39% 30.02 in 10.0 mi NW 21.9 mph 28.8 mph N/A   Mostly Cloudy
4:55 PM 46.9 °F - 24.1 °F 41% 30.04 in 10.0 mi NW 17.3 mph 26.5 mph N/A   Overcast
5:55 PM 46.9 °F - 23.0 °F 39% 30.06 in 10.0 mi NW 20.7 mph 26.5 mph N/A   Overcast
6:55 PM 45.0 °F 38.2 °F 24.1 °F 44% 30.08 in 10.0 mi NW 15.0 mph - N/A   Overcast
7:55 PM 37.9 °F 32.1 °F 23.0 °F 55% 30.10 in 10.0 mi WNW 8.1 mph - N/A   Scattered Clouds
8:55 PM 35.1 °F 27.9 °F 21.9 °F 59% 30.11 in 10.0 mi West 9.2 mph - N/A   Mostly Cloudy
9:55 PM 36.0 °F 29.0 °F 24.1 °F 62% 30.11 in 10.0 mi West 9.2 mph - N/A   Mostly Cloudy
10:55 PM 30.0 °F 25.2 °F 21.9 °F 72% 30.13 in 10.0 mi West 4.6 mph - N/A   Clear
11:55 PM 32.0 °F 24.8 °F 21.9 °F 66% 30.14 in 10.0 mi West 8.1 mph - N/A   Clear